Regional Weather Roundup
Issued by NWS Albany, NY

Home | Current Version | Previous Version | Graphics & Text | Print | Product List | Glossary On
Versions: 1 2 3 4 5 6 7 8 9 10 11 12 13 14 15 16 17 18 19 20 21 22 23 24 25 26 27
000
ASUS41 KALY 250310
RWRALY

NEW YORK STATE HOURLY WEATHER ROUNDUP
NATIONAL WEATHER SERVICE ALBANY NY
1100 PM EDT SAT JUN 24 2017

NOTE: "FAIR" INDICATES FEW OR NO CLOUDS BELOW 12,000 FEET WITH NO
SIGNIFICANT WEATHER AND/OR NO OBSTRUCTIONS TO VISIBILITY.

NYZ032-033-038>043-046>054-057>066-NYZ062>081-082-084-250400-
EAST


CITY           SKY/WX    TMP DP  RH WIND       PRES   REMARKS
ALBANY         MOCLDY    68  57  68 W6        29.89R
GLENS FALLS    PTCLDY    58  53  84 S5        29.87R
POUGHKEEPSIE   LGT RAIN  68  63  84 NW5       29.90R
NEWBURGH       PTCLDY    70  63  78 W12       29.93R
MONTGOMERY     CLOUDY    71  59  65 NW6       29.91R
WHITE PLAINS   CLEAR     75  57  53 W6        29.89R
ISLIP          PTCLDY    72  61  68 SW6       29.88R
NEW YORK CITY  PTCLDY    82  59  45 W10G18    29.88R
CENTRAL PARK   CLEAR     79  58  48 VRB5      29.91R
$$

NYZ005>009-017-018-044>046-055-056-250400-
CENTRAL


CITY           SKY/WX    TMP DP  RH WIND       PRES   REMARKS
FULTON         CLEAR     62  55  77 W6        29.90R
SYRACUSE       PTCLDY    64  54  69 SW8       29.90R
ROME           CLEAR     59  55  87 NE3       29.91R
ELMIRA         NOT AVBL
BINGHAMTON     CLEAR     61  54  77 CALM      29.97R
MONTICELLO     CLOUDY    63  63 100 SW3       29.97R
$$

NYZ026>034-041>043-087-250400-
NORTH


CITY           SKY/WX    TMP DP  RH WIND       PRES   REMARKS
WATERTOWN      CLEAR     63  61  93 SW5       29.88R
FORT DRUM      NOT AVBL
OGDENSBURG     FAIR      60  57  88 CALM      29.86R
MASSENA        CLOUDY    61  60  97 CALM      29.85R
SARANAC LAKE   MOCLDY    59  51  75 N3        29.88R
PLATTSBURGH    MOCLDY    67  50  54 NW8       29.83R
$$

NYZ001>004-010>016-019>021-085-250400-
WEST


CITY           SKY/WX    TMP DP  RH WIND       PRES   REMARKS
NIAGARA FALLS  CLOUDY    65  55  70 W7        29.92R
BUFFALO        MOCLDY    65  57  75 SW8       29.93R
DUNKIRK        CLOUDY    60  58  92 S7        29.95F
JAMESTOWN      PTCLDY    61  48  63 N12       29.99R
WELLSVILLE     CLEAR     61  49  64 W3        30.01R
ROCHESTER      PTCLDY    59  56  89 SW6       29.92R
PENN YAN       CLEAR     63  54  72 SW3       29.94S
$$

             KEY
       WCI = WIND CHILL INDEX
       VSB = VISIBILITY
       HX  = HEAT INDEX
$$




USA.gov is the U.S. government's official web portal to all federal, state and local government web resources and services.